Regional Weather Roundup
Issued by NWS Austin/San Antonio, TX

Current Version | Previous Version | Text Only | Print | Product List | Glossary On
Versions: 1 2 3 4 5 6 7 8 9 10 11 12 13 14 15 16 17 18 19 20 21 22 23 24 25 26 27 28 29 30 31 32 33 34 35 36 37 38 39 40 41 42 43 44 45 46 47 48 49 50
000
ASUS44 KEWX 231402
RWREWX
SOUTH TEXAS REGIONAL WEATHER ROUNDUP
NATIONAL WEATHER SERVICE AUSTIN/SAN ANTONIO TX
900 AM CDT FRI OCT 23 2020

NOTE: "FAIR" INDICATED FEW OR NO CLOUDS BELOW 12,000 FEET WITH NO
SIGNIFICANT WEATHER AND/OR OBSTRUCTIONS TO VISIBILITY.

* - THESE STATIONS ARE NOT NWS OR FAA STATIONS...AND ARE NOT SUBJECT
    TO NWS AND FAA QUALITY CONTROL.

TXZ171-172-183>190-231500-
TEXAS HILL COUNTRY AND EDWARDS PLATEAU

CITY           SKY/WX    TMP DP  RH WIND       PRES   REMARKS
JUNCTION       CLOUDY    74  68  81 SW8       29.97R
*LLANO         CLOUDY    73  68  83 VRB6      29.95R
BURNET         CLOUDY    74  68  81 SE5       30.00R
*HORSESHOE BAY CLOUDY    73  68  83 E3        29.97R
*LAGO VISTA    CLOUDY    73  70  92 SE5       29.99R
*KERRVILLE     CLOUDY    72  68  87 S6        29.98R
*FREDERICKSBRG CLOUDY    72  66  83 SW7       29.98R
*ROCKSPRINGS   CLOUDY    70  68  94 S8G14     30.04R FOG
*BOERNE        CLOUDY    72  70  94 S9        29.99R
*CASTROVILLE   CLOUDY    77  73  86 S6        29.96R
HONDO          CLOUDY    75  69  81 S8        29.95R
*UVALDE        CLOUDY    75  71  87 S7        29.97R
DEL RIO        SUNNY     76  71  85 SE16      29.93R
*LAUGHLIN AFB  NOT AVBL
*SPOFFORD      NOT AVBL
*EAGLE PASS    NOT AVBL
CARRIZO SPRGS  CLOUDY    77  70  78 S7        29.93R
*FAITH RANCH   CLOUDY    77  70  78 SE8       29.95R
$$

TXZ173-191>194-202-209-217>225-228-231500-
CENTRAL AND SOUTH CENTRAL TEXAS

CITY           SKY/WX    TMP DP  RH WIND       PRES   REMARKS
GEORGETOWN     CLOUDY    74  71  91 E3        29.99R
*TAYLOR        PTSUNNY   74  72  95 E5        29.97R
AUSTIN/BERGSTM LGT RAIN  75  73  93 SE6       29.96R
AUSTIN/MABRY   CLOUDY    75  71  87 SE5       29.97R
*PFLUGERVILLE  CLOUDY    75  72  88 CALM      29.97R FOG
SAN MARCOS     CLOUDY    74  74 100 SE5       29.97R
NEW BRAUNFELS  CLOUDY    77  71  82 S5        29.94R
*RANDOLPH AFB  CLOUDY    75  72  89 S6        29.94R
*SEGUIN        CLOUDY    74  72  95 SE5       29.99R
SAN ANTONIO    LGT RAIN  76  71  85 S5        29.95R
STINSON FIELD  CLOUDY    74  72  93 S5        29.93R
*KELLY FIELD   PTSUNNY   76  72  87 S6        29.93R
*PLEASANTON    CLOUDY    76  73  91 CALM      29.94R
*KENEDY        CLOUDY    76  74  91 SE3       29.94R
*LA GRANGE     CLOUDY    76  76 100 CALM      29.94R FOG
*GIDDINGS      CLOUDY    75  73  92 CALM      29.98R
*GONZALES      CLOUDY    76  76 100 SE5       29.93R
$$

TXZ163>164-176>182-195>201-210>213-226-227-235-231500-
SOUTHEAST TEXAS

CITY           SKY/WX    TMP DP  RH WIND       PRES   REMARKS
COLLEGE STN    RAIN      75  73  93 E3        29.97R FOG
*BRYAN         CLOUDY    74  74 100 SE3       29.99R
*CALDWELL      CLOUDY    73 N/A N/A E3        29.98R
*CROCKETT      NOT AVBL
*BRENHAM       CLOUDY    75  75  99 CALM      29.96R FOG
HUNTSVILLE     CLOUDY    77  72  84 CALM      29.97S
CONROE         CLOUDY    76  74  93 CALM      29.98R
HOUSTON BUSH   CLOUDY    76  75  97 E8        29.96R
HOUSTON HOBBY  MOSUNNY   79  75  87 E6        29.95R
*HOUSTON SW AP MOSUNNY   75  75 100 E3        29.95R FOG
PEARLAND       SUNNY     78  74  87 E3        29.96R
HOUSTON HOOKS  CLOUDY    76  74  93 NE6       29.96R FOG
ELLINGTON FLD  MOSUNNY   77  77 100 E5        29.95
SUGAR LAND     CLOUDY    78  76  93 E5        29.94R
*HOUSTON EXEC  MOSUNNY   77  77 100 E3        29.97R FOG
*CLEVELAND MUN CLOUDY    75  74  98 CALM      29.98R FOG
*WHARTON       FOG       73  72  98 E3        29.95R VSB 1/4
*COLUMBUS      NOT AVBL
*EAGLE LAKE    FOG       74  74  98 E3        29.95R VSB<1/4
$$

TXZ214>216-236>238-231500-
THE UPPER TEXAS COAST

CITY           SKY/WX    TMP DP  RH WIND       PRES   REMARKS
*ORANGE        PTSUNNY   75  74  94 E6        29.98S FOG
PORT ARTHUR    PTSUNNY   74  73  97 NE5       29.96R
GALVESTON      MOSUNNY   80  75  84 E7        29.95R
ANGLETON       FOG       76  75  97 CALM      29.94R VSB 1/4
*BAY CITY      FOG       73  73 100 NE3       29.94R VSB 1
PALACIOS       MOSUNNY   77  77 100 E5        29.92R FOG
$$

TXZ229>234-239>247-231500-
TEXAS COASTAL BEND AND RIO GRANDE PLAINS

CITY           SKY/WX    TMP DP  RH WIND       PRES   REMARKS
VICTORIA       FOG       75  74  96 NE3       29.94R VSB 1/4
*BEEVILLE      NOT AVBL
ROCKPORT       PTSUNNY   79  76  90 SE6       29.91R
*PORT ARANSAS  CLOUDY    80  76  87 SE5       29.93R
*PORT LAVACA   SUNNY     75  73  94 CALM      29.93R FOG
*INGLESIDE     SUNNY    N/A N/A N/A CALM      29.91R
CORPUS CHRISTI MOSUNNY   75  73  94 CALM      29.91R
CORPUS NAS     NOT AVBL
*ROBSTOWN      MOSUNNY   75  75 100 CALM      29.92R FOG
ALICE          FOG       75  75 100 CALM      29.91R VSB 1/2
KINGSVILLE NAS FOG       73  73 100 CALM      29.91R VSB 1/2
COTULLA        CLOUDY    78  72  81 S5        29.93R
LAREDO         CLOUDY    78  72  81 S9        29.92R
$$

TXZ248>255-231500-
DEEP SOUTH TEXAS

CITY           SKY/WX    TMP DP  RH WIND       PRES   REMARKS
BROWNSVILLE    SUNNY     78  76  93 S3        29.89R
PORT ISABEL    SUNNY     80  77  90 SE3       29.89R
HARLINGEN      SUNNY     76  76 100 SE3       29.89R
*HEBBRONVILLE    N/A     74  72  92 S6        29.93R
MCALLEN        PTSUNNY   80  74  81 SE3       29.90R
*WESLACO       CLOUDY    76  74  93 S3        29.89R
FALFURRIAS     CLOUDY    71  71 100 CALM      29.91R VSB 1/2
EDINBURG       CLOUDY    60  59  97 CALM      29.90R FOG
*ZAPATA        MOSUNNY   81  74  80 SE6       29.92R
$$

TXZ213>215-236>238-242>244-246-247-251-254-255-231500-
CMAN STATIONS

STATION/POSITION TIME  TEMP    WIND        PRES    WAVE
                       AIR SEA DIR/SP/G            HT/PER
                 (UTC) (F)     (DEG/KT/KT) (MB)    (FT/S)
SEA RIM ST PARK  1300   76      50/  5/  6 1014.0
NORTH JETTY/GLS  1330   83      80/  8/  9 1012.7
EAGLE POINT      1330   79      90/  7/  8 1013.2
MORGANS POINT    1330   77      90/  7/  9 1013.7
PORT O`CONNOR    1330   79     130/  6/  7 1012.3
PORT ARANSAS     1300   78 80  140/  6/  6 1012.1
MALAQUITE BEACH  1324   80     150/  6/  7   N/A
BAFFIN BAY       1324   79     140/  5/  6 1011.8
PORT ISABEL      1324   80     150/  5/  6 1013.7
$$



USA.gov is the U.S. government's official web portal to all federal, state and local government web resources and services.